• In Russia
  • List of Countries
  • For 7 days
  • Water Temperature
  • Satellite Maps
  • Weather Map
  • Weather Widgets
  • user-avatar
    Login

    Hourly Weather Biktimirovo

    Today, 27 May, Monday

    Time Temperature Precipitation Wind Pressure Humidity
    00:00 +16°C° 0 mm 5 mps 752 mmHg 43%
    01:00 +15°C° 0 mm 5 mps 752 mmHg 41%
    02:00 +15°C° 0.1 mm 4 mps 752 mmHg 43%
    03:00 +14°C° 0.1 mm 4 mps 752 mmHg 45%
    04:00 +15°C° 0 mm 5 mps 752 mmHg 38%
    05:00 +15°C° 0.5 mm 5 mps 752 mmHg 42%
    06:00 +15°C° 0.5 mm 4 mps 752 mmHg 46%
    07:00 +15°C° 0.5 mm 4 mps 752 mmHg 50%
    08:00 +17°C° 0 mm 4 mps 752 mmHg 47%
    09:00 +19°C° 0 mm 5 mps 752 mmHg 44%
    10:00 +19°C° 0 mm 5 mps 752 mmHg 45%
    11:00 +21°C° 0 mm 6 mps 752 mmHg 42%
    12:00 +23°C° 0 mm 6 mps 751 mmHg 39%
    13:00 +26°C° 0 mm 6 mps 751 mmHg 36%
    14:00 +27°C° 0 mm 6 mps 751 mmHg 36%
    15:00 +27°C° 0 mm 6 mps 751 mmHg 37%
    16:00 +28°C° 0 mm 6 mps 750 mmHg 38%
    17:00 +27°C° 0 mm 5 mps 750 mmHg 43%
    18:00 +25°C° 0 mm 5 mps 750 mmHg 49%
    19:00 +23°C° 0 mm 4 mps 750 mmHg 54%
    20:00 +22°C° 0 mm 4 mps 750 mmHg 52%
    21:00 +21°C° 0 mm 4 mps 750 mmHg 50%
    22:00 +19°C° 0 mm 4 mps 750 mmHg 48%
    23:00 +19°C° 0 mm 4 mps 750 mmHg 48%

    Tomorrow, 28 May, Tuesday

    Time Temperature Precipitation Wind Pressure Humidity
    00:00 +18°C° 0 mm 3 mps 750 mmHg 48%
    01:00 +18°C° 0 mm 3 mps 751 mmHg 48%
    02:00 +17°C° 0 mm 3 mps 751 mmHg 48%
    03:00 +17°C° 0 mm 2 mps 751 mmHg 48%
    04:00 +16°C° 0 mm 2 mps 751 mmHg 49%
    05:00 +17°C° 0 mm 2 mps 751 mmHg 53%
    06:00 +18°C° 0 mm 2 mps 751 mmHg 56%
    07:00 +18°C° 0 mm 2 mps 751 mmHg 60%
    08:00 +20°C° 0 mm 2 mps 751 mmHg 58%
    09:00 +23°C° 0 mm 2 mps 751 mmHg 56%
    10:00 +25°C° 0 mm 2 mps 751 mmHg 53%
    11:00 +26°C° 0 mm 3 mps 751 mmHg 48%
    12:00 +27°C° 0 mm 3 mps 751 mmHg 43%
    13:00 +28°C° 0 mm 3 mps 751 mmHg 38%
    14:00 +28°C° 0 mm 3 mps 750 mmHg 38%
    15:00 +28°C° 0 mm 4 mps 750 mmHg 39%
    16:00 +28°C° 0 mm 4 mps 750 mmHg 39%
    17:00 +27°C° 0 mm 3 mps 750 mmHg 49%
    18:00 +25°C° 0 mm 3 mps 750 mmHg 58%
    19:00 +23°C° 0 mm 2 mps 750 mmHg 68%
    20:00 +21°C° 0 mm 2 mps 750 mmHg 67%
    21:00 +20°C° 0 mm 2 mps 750 mmHg 67%
    22:00 +18°C° 0 mm 2 mps 751 mmHg 67%
    23:00 +18°C° 0 mm 2 mps 751 mmHg 66%

    Day after tomorrow, 29 May, Wednesday

    Time Temperature Precipitation Wind Pressure Humidity
    00:00 +18°C° 0 mm 2 mps 751 mmHg 64%
    01:00 +17°C° 0 mm 3 mps 751 mmHg 62%
    02:00 +17°C° 0 mm 3 mps 751 mmHg 62%
    03:00 +16°C° 0 mm 3 mps 751 mmHg 62%
    04:00 +16°C° 0 mm 3 mps 751 mmHg 62%
    05:00 +17°C° 0 mm 3 mps 751 mmHg 62%
    06:00 +19°C° 0 mm 3 mps 751 mmHg 62%
    07:00 +20°C° 0 mm 4 mps 752 mmHg 62%
    08:00 +22°C° 0 mm 4 mps 752 mmHg 58%
    09:00 +25°C° 0 mm 4 mps 752 mmHg 54%
    10:00 +27°C° 0 mm 4 mps 752 mmHg 51%
    11:00 +27°C° 0 mm 4 mps 752 mmHg 50%
    12:00 +28°C° 0 mm 4 mps 752 mmHg 49%
    13:00 +29°C° 0 mm 4 mps 752 mmHg 48%
    14:00 +28°C° 0 mm 4 mps 752 mmHg 48%
    15:00 +28°C° 0 mm 5 mps 752 mmHg 48%
    16:00 +28°C° 0 mm 5 mps 752 mmHg 48%
    17:00 +27°C° 0 mm 5 mps 752 mmHg 54%
    18:00 +26°C° 0 mm 4 mps 752 mmHg 60%
    19:00 +23°C° 0 mm 4 mps 752 mmHg 66%
    20:00 +22°C° 0 mm 4 mps 752 mmHg 69%
    21:00 +21°C° 0 mm 4 mps 753 mmHg 71%
    22:00 +19°C° 0 mm 5 mps 753 mmHg 73%
    23:00 +19°C° 0 mm 4 mps 753 mmHg 74%

    30 May, Thursday

    Time Temperature Precipitation Wind Pressure Humidity
    00:00 +19°C° 0 mm 4 mps 753 mmHg 75%
    01:00 +18°C° 0 mm 4 mps 753 mmHg 77%
    02:00 +17°C° 0 mm 3 mps 754 mmHg 78%
    03:00 +17°C° 0 mm 3 mps 754 mmHg 80%
    04:00 +16°C° 0 mm 2 mps 754 mmHg 82%
    05:00 +18°C° 0 mm 2 mps 754 mmHg 78%
    06:00 +19°C° 0 mm 2 mps 754 mmHg 74%
    07:00 +20°C° 0 mm 2 mps 755 mmHg 70%
    08:00 +23°C° 0 mm 2 mps 755 mmHg 64%
    09:00 +24°C° 0 mm 2 mps 755 mmHg 58%
    10:00 +26°C° 0 mm 2 mps 755 mmHg 52%
    11:00 +27°C° 0 mm 2 mps 755 mmHg 49%
    12:00 +28°C° 0 mm 2 mps 755 mmHg 46%
    13:00 +28°C° 0 mm 2 mps 755 mmHg 44%
    14:00 +29°C° 0 mm 2 mps 754 mmHg 43%
    15:00 +29°C° 0 mm 2 mps 754 mmHg 43%
    16:00 +29°C° 0 mm 2 mps 754 mmHg 43%
    17:00 +28°C° 0 mm 2 mps 754 mmHg 48%
    18:00 +28°C° 0 mm 2 mps 754 mmHg 53%
    19:00 +27°C° 0 mm 2 mps 754 mmHg 58%
    20:00 +25°C° 0 mm 2 mps 754 mmHg 64%
    21:00 +23°C° 0 mm 2 mps 755 mmHg 70%
    22:00 +20°C° 0 mm 2 mps 755 mmHg 76%
    23:00 +20°C° 0 mm 2 mps 755 mmHg 78%

    31 May, Friday

    Time Temperature Precipitation Wind Pressure Humidity
    00:00 +19°C° 0 mm 2 mps 755 mmHg 79%
    01:00 +20°C° 0 mm 1 mps 755 mmHg 81%
    02:00 +20°C° 0 mm 1 mps 755 mmHg 81%
    03:00 +19°C° 0 mm 1 mps 755 mmHg 82%
    04:00 +19°C° 0 mm 1 mps 755 mmHg 82%
    05:00 +21°C° 0 mm 1 mps 755 mmHg 78%
    06:00 +22°C° 0 mm 1 mps 755 mmHg 73%
    07:00 +23°C° 0 mm 2 mps 755 mmHg 69%
    08:00 +25°C° 0 mm 2 mps 755 mmHg 64%
    09:00 +26°C° 0 mm 2 mps 755 mmHg 60%
    10:00 +28°C° 0 mm 2 mps 755 mmHg 55%
    11:00 +29°C° 0 mm 2 mps 755 mmHg 52%
    12:00 +29°C° 0 mm 2 mps 754 mmHg 49%
    13:00 +30°C° 0 mm 2 mps 754 mmHg 46%
    14:00 +31°C° 0 mm 2 mps 754 mmHg 46%
    15:00 +31°C° 0 mm 2 mps 754 mmHg 45%
    16:00 +31°C° 0 mm 2 mps 753 mmHg 45%
    17:00 +30°C° 0 mm 2 mps 753 mmHg 51%
    18:00 +29°C° 0 mm 2 mps 753 mmHg 58%
    19:00 +28°C° 0 mm 2 mps 753 mmHg 64%
    20:00 +26°C° 0 mm 2 mps 753 mmHg 67%
    21:00 +25°C° 0 mm 2 mps 753 mmHg 71%
    22:00 +23°C° 0 mm 2 mps 754 mmHg 74%
    23:00 +23°C° 0 mm 2 mps 754 mmHg 75%

    1 June, Saturday

    Time Temperature Precipitation Wind Pressure Humidity
    00:00 +22°C° 0 mm 1 mps 753 mmHg 77%
    01:00 +22°C° 0 mm 1 mps 753 mmHg 78%
    02:00 +21°C° 0 mm 1 mps 753 mmHg 80%
    03:00 +21°C° 0 mm 1 mps 753 mmHg 82%
    04:00 +20°C° 0 mm 2 mps 753 mmHg 84%
    05:00 +21°C° 0 mm 2 mps 753 mmHg 80%
    06:00 +23°C° 0 mm 2 mps 754 mmHg 76%
    07:00 +25°C° 0 mm 2 mps 754 mmHg 72%
    08:00 +26°C° 0 mm 2 mps 754 mmHg 66%
    09:00 +28°C° 0 mm 2 mps 753 mmHg 59%
    10:00 +30°C° 0 mm 2 mps 753 mmHg 53%
    11:00 +31°C° 0 mm 2 mps 753 mmHg 49%
    12:00 +31°C° 0 mm 1 mps 753 mmHg 45%
    13:00 +32°C° 0 mm 1 mps 753 mmHg 42%
    14:00 +32°C° 0 mm 1 mps 753 mmHg 42%
    15:00 +32°C° 0 mm 2 mps 752 mmHg 42%
    16:00 +32°C° 0 mm 2 mps 752 mmHg 43%
    17:00 +31°C° 0 mm 2 mps 752 mmHg 47%
    18:00 +30°C° 0 mm 2 mps 752 mmHg 51%
    19:00 +30°C° 0 mm 2 mps 752 mmHg 55%
    20:00 +28°C° 0 mm 2 mps 752 mmHg 60%
    21:00 +26°C° 0 mm 2 mps 752 mmHg 65%
    22:00 +24°C° 0 mm 3 mps 752 mmHg 70%
    23:00 +24°C° 0 mm 2 mps 752 mmHg 73%
    Show more